Hourly Weather Roundup
Issued by NWS Central Illinois

Home | Current Version | Previous Version | Text Only | Print | Product List | Glossary On
Versions: 1 2 3 4 5 6 7 8 9 10 11 12 13 14 15 16 17 18 19 20 21 22 23 24 25 26 27 28 29 30 31 32 33 34 35 36 37 38 39 40 41 42 43 44 45 46 47 48 49 50
000
NZUS43 KILX 211210
HWRILX

AREA WEATHER ROUNDUP
NATIONAL WEATHER SERVICE, LINCOLN IL
700 AM CDT TUE OCT 21 2014


CITY           SKY/WX    TMP DP  RH WIND       PRES   REMARKS
BLOOMINGTON    CLEAR     43  40  89 N6        30.11R
6HR MIN TEMP:  43; 6HR MAX TEMP:  47;

CHAMPAIGN      CLOUDY    44  42  93 N6        30.08R
6HR MIN TEMP:  41; 6HR MAX TEMP:  48;

DECATUR        CLEAR     44  42  93 N6        30.09R FOG
6HR MIN TEMP:  40; 6HR MAX TEMP:  48;

FLORA          CLEAR     44  43  97 N3        30.07R
6HR MIN TEMP:  42; 6HR MAX TEMP:  48;

GALESBURG      CLEAR     35  35  97 CALM      30.12R
JACKSONVILLE   CLEAR     44  41  89 N5        30.10R
6HR MIN TEMP:  43; 6HR MAX TEMP:  50;

LACON          CLEAR     40  39  96 CALM      30.11R
6HR MIN TEMP:  37; 6HR MAX TEMP:  41;

LAWRENCEVILLE  CLEAR     42  41  96 NW5       30.06R
6HR MIN TEMP:  42; 6HR MAX TEMP:  50;

LITCHFIELD     FAIR      41  39  94 N3        30.08R
$$


CITY           SKY/WX    TMP DP  RH WIND       PRES   REMARKS
LINCOLN        CLEAR     43  40  89 CALM      30.09R
6HR MIN TEMP:  43; 6HR MAX TEMP:  48;

MACOMB         CLEAR     39  38  94 N6        30.14R WCI  35
MATTOON        PTCLDY    41  40  96 NW5       30.07R
6HR MIN TEMP:  41; 6HR MAX TEMP:  48;

MT CARMEL AP   CLEAR     45  43  93 NW3       30.06R
OLNEY-NOBLE AP CLEAR     41  39  93 CALM      30.07R
PARIS          CLOUDY    46  46  99 CALM      30.08R FOG
6HR MIN TEMP:  45; 6HR MAX TEMP:  50;

PEORIA         CLEAR     45  39  79 N5        30.12R
6HR MIN TEMP:  45; 6HR MAX TEMP:  49;

PONTIAC          N/A     45  43  93 N6        30.10R
RANTOUL        MOCLDY    49  44  82 N7        30.08S
6HR MIN TEMP:  44; 6HR MAX TEMP:  49;

ROBINSON       CLOUDY    43  43 100 CALM      30.08R
6HR MIN TEMP:  41; 6HR MAX TEMP:  49;

SPRINGFIELD    CLEAR     39  36  89 CALM      30.10R FOG
6HR MIN TEMP:  39; 6HR MAX TEMP:  46;

TAYLORVILLE    CLEAR     37  37 100 N5        30.09R FOG     WCI  34
$$

...REGIONAL REPORTS...


CITY           SKY/WX    TMP DP  RH WIND       PRES   REMARKS
CHICAGO O`HARE PTCLDY    46  39  76 N12       30.09R
KANKAKEE       CLOUDY    48  44  85 NW5       30.09R
MOLINE         CLEAR     37  35  92 CALM      30.14R
MOUNT VERNON   CLEAR     39  34  81 CALM      30.06S
PITTSFIELD     CLEAR     45  41  88 N3        30.11R
QUINCY         CLEAR     40  38  93 NE6       30.10R
ROCKFORD       MOCLDY    46  40  79 N6        30.15R
$$


CITY           SKY/WX    TMP DP  RH WIND       PRES   REMARKS
BURLINGTON     CLEAR     41  40  96 N6        30.12R
CEDAR RAPIDS   CLEAR     37  37 100 N5        30.13R WCI  33
DES MOINES     CLEAR     43  39  86 CALM      30.12S
KIRKSVILLE     CLEAR     40  39  97 N3        30.12R
OTTUMWA        CLEAR     41  38  89 NE6       30.12R
ST LOUIS       CLEAR     49  43  80 CALM      30.08R
$$


CITY           SKY/WX    TMP DP  RH WIND       PRES   REMARKS
TERRE HAUTE    CLOUDY    49  47  93 NW3       30.06R
EVANSVILLE     CLEAR     45  42  89 CALM      30.05R
INDIANAPOLIS   CLOUDY    47  44  90 NW8       30.03R
LAFAYETTE      CLOUDY    48  45  89 NW8       30.05R
MADISON        PTCLDY    40  37  89 N7        30.17R
MILWAUKEE      MOCLDY    45  38  76 N9        30.12R
$$




USA.gov is the U.S. government's official web portal to all federal, state and local government web resources and services.